This is the latest recevied weather packets stored in our database for station/object N4CRH-13. If no packets are shown the sender has not sent any weather packets the latest 10 day(s).
| Time | Temp. | Humidity | Pressure | Rain* | Wind** | Luminosity | Snow |
|---|---|---|---|---|---|---|---|
| 1777887255 | 11.11° C | 39% | 1289.8 hPa | 0 mm | - | 0 W/m² | - |
| 1777886951 | 12.22° C | 31% | 1289.7 hPa | 0 mm | - | 0 W/m² | - |
| 1777886648 | 12.78° C | 30% | 1290.1 hPa | 0 mm | - | 0 W/m² | - |
| 1777886345 | 12.22° C | 29% | 1289.6 hPa | 0 mm | - | 0 W/m² | - |
| 1777886043 | 12.78° C | 29% | 1289.7 hPa | 0 mm | - | 0 W/m² | - |
| 1777885741 | 12.22° C | 29% | 1289.8 hPa | 0 mm | - | 0 W/m² | - |
| 1777885438 | 12.22° C | 30% | 1289.8 hPa | 0 mm | - | 0 W/m² | - |
| 1777885137 | 12.78° C | 29% | 1290 hPa | 0 mm | - | 0 W/m² | - |
| 1777884834 | 12.78° C | 29% | 1290.1 hPa | 0 mm | - | 0 W/m² | - |
| 1777884530 | 12.22° C | 31% | 1290.1 hPa | 0 mm | - | 0 W/m² | - |
| 1777884227 | 11.67° C | 32% | 1290.2 hPa | 0 mm | - | 0 W/m² | - |
| 1777883924 | 12.78° C | 32% | 1290.1 hPa | 0 mm | - | 0 W/m² | - |
| 1777883620 | 13.33° C | 30% | 1290.2 hPa | 0 mm | - | 0 W/m² | - |
| 1777883316 | 13.33° C | 28% | 1290.1 hPa | 0 mm | - | 0 W/m² | - |
| 1777883013 | 12.78° C | 30% | 1290.2 hPa | 0 mm | - | 0 W/m² | - |
| 1777882709 | 12.78° C | 30% | 1290.3 hPa | 0 mm | - | 0 W/m² | - |
| 1777882407 | 11.67° C | 31% | 1290.3 hPa | 0 mm | - | 0 W/m² | - |
| 1777882102 | 12.78° C | 30% | 1290.2 hPa | 0 mm | - | 0 W/m² | - |
| 1777881800 | 12.22° C | 32% | 1290.4 hPa | 0 mm | - | 0 W/m² | - |
| 1777881496 | 12.22° C | 31% | 1290.4 hPa | 0 mm | - | 0 W/m² | - |
| 1777881193 | 12.22° C | 32% | 1290.6 hPa | 0 mm | - | 0 W/m² | - |
| 1777880891 | 11.67° C | 31% | 1290.4 hPa | 0 mm | - | 0 W/m² | - |
| 1777880589 | 12.22° C | 32% | 1290.6 hPa | 0 mm | - | 0 W/m² | - |
| 1777880287 | 11.67° C | 31% | 1290.6 hPa | 0 mm | - | 0 W/m² | - |
| 1777879985 | 11.67° C | 33% | 1290.9 hPa | 0 mm | - | 0 W/m² | - |
* Rain latest hour (hover to see other rain measurements)
** Current wind speed in m/s (hover to see current wind gust speed)